Wrangell, AK

11:03 PM AKDT on June 27, 2017 (GMT -0800)
Wrangell

Weather History for PAWG - October, 2012

Change the Weather History Date:

Tuesday, October 30, 2012

  Actual Average Record
Temperature  
Mean Temperature 28 °F -  
Max Temperature 33 °F 45 °F 64 °F (1970)
Min Temperature 24 °F 35 °F 18 °F (1984)
Degree Days  
Heating Degree Days 36    
Moisture  
Dew Point 11 °F    
Average Humidity 49    
Maximum Humidity 59    
Minimum Humidity 41    
Precipitation  
Precipitation 0.00 in - - ()
Sea Level Pressure  
Sea Level Pressure 30.03 in    
Wind  
Wind Speed 7 mph (East)    
Max Wind Speed 10 mph    
Max Gust Speed -    
Visibility 10 miles    
Events      
Averages and records for this station are not official NWS values.
T = Trace of Precipitation, MM = Missing Value Source: NWS Daily Summary

Daily Weather History Graph

Daily Weather History Graph

Search for Another Location

Airport or City:

Trip Planner

Search our weather history database for the weather conditions in past years. The results will help you decide how hot, cold, wet, or windy it might be!

Date:

Astronomy

Oct. 30, 2012 Rise Set
Actual Time 7:55 AM AKDT 5:10 PM AKDT
Civil Twilight 7:15 AM AKDT 5:50 PM AKDT
Nautical Twilight 6:30 AM AKDT 6:34 PM AKDT
Astronomical Twilight 5:47 AM AKDT 7:18 PM AKDT
Moon 5:25 PM AKDT (10/30) 9:05 AM AKDT (10/30)
Length of Visible Light 10h 34m
Length of Day
9h 14m
Full, 99% of the Moon is Illuminated
Oct 30
Full
Nov 6
Last Quarter
Nov 13
New
Nov 20
First Quarter
Nov 28
Full

Hourly Weather History & Observations

Time (AKDT) Temp. Windchill Dew Point Humidity Pressure Visibility Wind Dir Wind Speed Gust Speed Precip Events Conditions
12:16 AM 26.6 °F 18.2 °F 8.6 °F 47% 30.05 in 10.0 mi ENE 8.1 mph - N/A   Clear
12:36 AM 26.6 °F 16.8 °F 8.6 °F 47% 30.05 in 10.0 mi ESE 10.4 mph - N/A   Clear
12:56 AM 26.6 °F 16.8 °F 6.8 °F 43% 30.06 in 10.0 mi ESE 10.4 mph - N/A   Clear
1:16 AM 26.6 °F 17.5 °F 6.8 °F 43% 30.06 in 10.0 mi ESE 9.2 mph - N/A   Clear
1:36 AM 26.6 °F 18.2 °F 6.8 °F 43% 30.06 in 10.0 mi ESE 8.1 mph - N/A   Clear
1:56 AM 26.6 °F 17.5 °F 8.6 °F 47% 30.06 in 10.0 mi East 9.2 mph - N/A   Clear
2:16 AM 26.6 °F 19.1 °F 8.6 °F 47% 30.07 in 10.0 mi East 6.9 mph - N/A   Clear
2:36 AM 26.6 °F 18.2 °F 8.6 °F 47% 30.07 in 10.0 mi East 8.1 mph - N/A   Clear
2:56 AM 26.6 °F 16.8 °F 8.6 °F 47% 30.07 in 10.0 mi ESE 10.4 mph - N/A   Clear
3:16 AM 26.6 °F 17.5 °F 8.6 °F 47% 30.08 in 10.0 mi East 9.2 mph - N/A   Clear
3:36 AM 26.6 °F 18.2 °F 8.6 °F 47% 30.08 in 10.0 mi East 8.1 mph - N/A   Clear
3:56 AM 26.6 °F 16.8 °F 8.6 °F 47% 30.08 in 10.0 mi ESE 10.4 mph - N/A   Clear
4:16 AM 26.6 °F 16.8 °F 8.6 °F 47% 30.09 in 10.0 mi East 10.4 mph - N/A   Clear
4:36 AM 26.6 °F 17.5 °F 8.6 °F 47% 30.09 in 10.0 mi East 9.2 mph - N/A   Clear
4:56 AM 24.8 °F 16.1 °F 8.6 °F 50% 30.10 in 10.0 mi East 8.1 mph - N/A   Clear
5:16 AM 26.6 °F 16.8 °F 8.6 °F 47% 30.08 in 10.0 mi East 10.4 mph - N/A   Clear
5:36 AM 24.8 °F 15.3 °F 8.6 °F 50% 30.09 in 10.0 mi East 9.2 mph - N/A   Clear
5:56 AM 24.8 °F 14.6 °F 8.6 °F 50% 30.09 in 10.0 mi East 10.4 mph - N/A   Clear
6:16 AM 24.8 °F 15.3 °F 8.6 °F 50% 30.09 in 10.0 mi East 9.2 mph - N/A   Clear
6:36 AM 24.8 °F 16.9 °F 8.6 °F 50% 30.09 in 10.0 mi East 6.9 mph - N/A   Clear
6:56 AM 24.8 °F 16.9 °F 8.6 °F 50% 30.09 in 10.0 mi East 6.9 mph - N/A   Clear
7:16 AM 26.6 °F 16.8 °F 10.4 °F 51% 30.09 in 10.0 mi East 10.4 mph - N/A   Clear
7:36 AM 24.8 °F 16.9 °F 10.4 °F 54% 30.09 in 10.0 mi East 6.9 mph - N/A   Clear
7:56 AM 24.8 °F 16.1 °F 8.6 °F 50% 30.09 in 10.0 mi East 8.1 mph - N/A   Scattered Clouds
8:16 AM 26.6 °F 16.8 °F 10.4 °F 51% 30.09 in 10.0 mi East 10.4 mph - N/A   Scattered Clouds
8:36 AM 26.6 °F 19.1 °F 10.4 °F 51% 30.09 in 10.0 mi East 6.9 mph - N/A   Scattered Clouds
8:56 AM 26.6 °F 18.2 °F 10.4 °F 51% 30.10 in 10.0 mi East 8.1 mph - N/A   Scattered Clouds
9:16 AM 26.6 °F 19.1 °F 10.4 °F 51% 30.10 in 10.0 mi ENE 6.9 mph - N/A   Scattered Clouds
9:36 AM 26.6 °F 20.0 °F 10.4 °F 51% 30.10 in 10.0 mi East 5.8 mph - N/A   Scattered Clouds
9:56 AM 26.6 °F 19.1 °F 10.4 °F 51% 30.10 in 10.0 mi East 6.9 mph - N/A   Scattered Clouds
10:16 AM 26.6 °F 18.2 °F 10.4 °F 51% 30.10 in 10.0 mi East 8.1 mph - N/A   Scattered Clouds
10:36 AM 28.4 °F 19.7 °F 10.4 °F 47% 30.09 in 10.0 mi ESE 9.2 mph - N/A   Scattered Clouds
10:56 AM 28.4 °F 20.4 °F 10.4 °F 47% 30.09 in 10.0 mi ESE 8.1 mph - N/A   Scattered Clouds
11:16 AM 28.4 °F 22.2 °F 10.4 °F 47% 30.09 in 10.0 mi East 5.8 mph - N/A   Scattered Clouds
11:36 AM 30.2 °F 23.4 °F 10.4 °F 44% 30.08 in 10.0 mi ESE 6.9 mph - N/A   Scattered Clouds
11:56 AM 30.2 °F 23.4 °F 12.2 °F 47% 30.07 in 10.0 mi ESE 6.9 mph - N/A   Scattered Clouds
12:16 PM 32.0 °F 25.6 °F 14.0 °F 48% 30.07 in 10.0 mi East 6.9 mph - N/A   Scattered Clouds
12:36 PM 30.2 °F - 14.0 °F 51% 30.07 in 10.0 mi Calm Calm - N/A   Scattered Clouds
12:56 PM 30.2 °F 24.3 °F 12.2 °F 47% 30.06 in 10.0 mi NW 5.8 mph - N/A   Clear
1:16 PM 30.2 °F 25.4 °F 12.2 °F 47% 30.05 in 10.0 mi NNW 4.6 mph - N/A   Clear
1:36 PM 30.2 °F 23.4 °F 12.2 °F 47% 30.04 in 10.0 mi NNW 6.9 mph - N/A   Clear
1:56 PM 32.0 °F 27.5 °F 12.2 °F 44% 30.04 in 10.0 mi North 4.6 mph - N/A   Clear
2:16 PM 32.0 °F 28.7 °F 12.2 °F 44% 30.04 in 10.0 mi North 3.5 mph - N/A   Clear
2:36 PM 33.8 °F 30.8 °F 12.2 °F 41% 30.03 in 10.0 mi North 3.5 mph - N/A   Clear
2:56 PM 33.8 °F 30.8 °F 12.2 °F 41% 30.03 in 10.0 mi North 3.5 mph - N/A   Scattered Clouds
3:16 PM 33.8 °F 28.6 °F 14.0 °F 44% 30.02 in 10.0 mi NW 5.8 mph - N/A   Scattered Clouds
3:36 PM 33.8 °F 29.6 °F 12.2 °F 41% 30.02 in 10.0 mi North 4.6 mph - N/A   Scattered Clouds
3:56 PM 33.8 °F 29.6 °F 12.2 °F 41% 30.01 in 10.0 mi NW 4.6 mph - N/A   Scattered Clouds
4:16 PM 33.8 °F 29.6 °F 12.2 °F 41% 30.01 in 10.0 mi NNW 4.6 mph - N/A   Scattered Clouds
4:36 PM 32.0 °F 28.7 °F 12.2 °F 44% 30.00 in 10.0 mi NNW 3.5 mph - N/A   Scattered Clouds
4:56 PM 30.2 °F - 10.4 °F 44% 30.00 in 10.0 mi Calm Calm - N/A   Scattered Clouds
5:16 PM 30.2 °F 26.7 °F 12.2 °F 47% 29.99 in 10.0 mi West 3.5 mph - N/A   Scattered Clouds
5:36 PM 30.2 °F 26.7 °F 10.4 °F 44% 29.99 in 10.0 mi WSW 3.5 mph - N/A   Scattered Clouds
5:56 PM 30.2 °F 25.4 °F 12.2 °F 47% 29.99 in 10.0 mi West 4.6 mph - N/A   Scattered Clouds
6:16 PM 30.2 °F 26.7 °F 14.0 °F 51% 29.98 in 10.0 mi NW 3.5 mph - N/A   Scattered Clouds
6:36 PM 30.2 °F - 12.2 °F 47% 29.98 in 10.0 mi Calm Calm - N/A   Scattered Clouds
6:56 PM 28.4 °F - 12.2 °F 51% 29.98 in 10.0 mi Calm Calm - N/A   Scattered Clouds
7:16 PM 28.4 °F - 12.2 °F 51% 29.98 in 10.0 mi Calm Calm - N/A   Scattered Clouds
7:36 PM 28.4 °F - 12.2 °F 51% 29.97 in 10.0 mi Calm Calm - N/A   Scattered Clouds
7:56 PM 28.4 °F - 12.2 °F 51% 29.97 in 10.0 mi Calm Calm - N/A   Clear
8:16 PM 28.4 °F - 12.2 °F 51% 29.96 in 10.0 mi Calm Calm - N/A   Clear
8:36 PM 28.4 °F - 12.2 °F 51% 29.96 in 10.0 mi Calm Calm - N/A   Clear
8:56 PM 28.4 °F 24.6 °F 15.8 °F 59% 29.95 in 10.0 mi SE 3.5 mph - N/A   Clear
9:16 PM 28.4 °F - 14.0 °F 55% 29.94 in 10.0 mi Calm Calm - N/A   Clear
9:36 PM 26.6 °F - 14.0 °F 59% 29.94 in 10.0 mi Calm Calm - N/A   Clear
9:56 PM 26.6 °F - 14.0 °F 59% 29.93 in 10.0 mi Calm Calm - N/A   Clear
10:16 PM 24.8 °F - 12.2 °F 59% 29.93 in 10.0 mi Calm Calm - N/A   Clear
10:36 PM 26.6 °F - 12.2 °F 55% 29.92 in 10.0 mi Calm Calm - N/A   Clear
10:56 PM 26.6 °F - 12.2 °F 55% 29.91 in 10.0 mi Calm Calm - N/A   Clear
11:16 PM 26.6 °F - 14.0 °F 59% 29.91 in 10.0 mi Calm Calm - N/A   Clear
11:36 PM 26.6 °F 22.6 °F 14.0 °F 59% 29.90 in 10.0 mi South 3.5 mph - N/A   Clear
11:56 PM 26.6 °F 22.6 °F 14.0 °F 59% 29.90 in 10.0 mi SSE 3.5 mph - N/A   Clear